SSEC Globe Logo

Space Science and Engineering Center

Wisconsin State Observations

ASUS43 KMKX 102000                                              2019344 2000
RWRWI
WISCONSIN REGIONAL WEATHER ROUNDUP
NATIONAL WEATHER SERVICE MILWAUKEE/SULLIVAN WI
NOTE: "FAIR" INDICATES FEW OR NO CLOUDS BELOW 12,000 FEET WITH NO
SIGNIFICANT WEATHER AND/OR OBSTRUCTIONS TO VISIBILITY.

CITY           SKY/WX    TMP DP  RH WIND       PRES   REMARKS
SUPERIOR ARPT  FAIR       3  -8  61 W9        30.15S WCI -12
ASHLAND        PTSUNNY    3  -5  69 W13       30.10S WCI -14
HAYWARD        FAIR       3  -7  63 VRB5      30.10R WCI  -6
SIREN          FAIR       4  -7  60 W10       30.16S WCI -11
CUMBERLAND     FAIR       3  -8  60 W12       30.13R WCI -13
RICE LAKE      FAIR       4 -13  45 W9        30.16R WCI -11
CHETEK         FAIR       3  -7  63 W5        30.15S WCI  -6
LADYSMITH      FAIR       5  -6  60 W10       30.12R WCI -10
EAU CLAIRE     FAIR       6  -5  60 W9        30.17S WCI  -8
MENOMONIE      FAIR       3  -6  66 W12       30.19R WCI -14
NEW RICHMOND   FAIR       5  -7  56 W13       30.18S WCI -12
OSCEOLA        FAIR       6  -5  60 W8        30.22S WCI  -7


CITY           SKY/WX    TMP DP  RH WIND       PRES   REMARKS
MANITOWISH WTR CLOUDY     3  -4  73 W7        30.00R HAZE    WCI  -9
ARBOR VITAE    CLOUDY     6   0  73 SW9       29.99S HAZE    WCI  -7
WOODRUFF       CLOUDY     6   0  73 SW9       29.99S HAZE    WCI  -7
RHINELANDER    CLOUDY     5  -4  66 W14       30.00R WCI -12
EAGLE RIVER    CLOUDY     6  -2  71 W9        29.98R HAZE    WCI  -8
LAND O LAKES   CLOUDY     7  -1  71 W8        29.98R HAZE    WCI  -6
PHILLIPS       FAIR       3  -6  65 NW6       30.04R WCI  -8
TOMAHAWK       CLOUDY     6  -5  60 W7        30.04R WCI  -6
MEDFORD        FAIR       1  -8  66 SW9       30.06R WCI -14
MERRILL        FAIR       8  -2  63 SW10      30.06R WCI  -6


CITY           SKY/WX    TMP DP  RH WIND       PRES   REMARKS
WAUSAU         PTSUNNY    5  -6  60 W13       30.07S WCI -12
MOSINEE        MOSUNNY    5  -4  66 W14       30.09S WCI -12
MARSHFIELD     PTSUNNY    5  -7  57 W14       30.10R WCI -12
STEVENS POINT  FAIR       7  -5  57 W12       30.11R WCI  -8
WAUPACA        FAIR      15   1  53 W13       30.13R WCI   1
WAUTOMA        FAIR      14   1  56 W14       30.13S WCI  -1
WISC RAPIDS    FAIR       9  -3  58 NW13G20   30.13S WCI  -7
CAMP DOUGLAS   NOT AVBL


CITY           SKY/WX    TMP DP  RH WIND       PRES   REMARKS
ANTIGO         CLOUDY     6  -3  66 W9        30.02S WCI  -8
SHAWANO        FAIR      14   3  61 SW8       30.09R WCI   3
OCONTO         FAIR      13   3  64 W9        30.09R WCI   1
STURGEON BAY   PTSUNNY   14   6  70 MISG      30.07S
GREEN BAY      FAIR      13   3  64 W13       30.11R WCI  -2
MANITOWOC      FAIR      17   7  64 W15G21    30.11S WCI   2
APPLETON       MOSUNNY   12  -2  52 W15       30.08F WCI  -4
CLINTONVILLE   FAIR      12  -2  53 W12       30.10S WCI  -2
OSHKOSH        FAIR      14   4  64 W9        30.11S WCI   2


CITY           SKY/WX    TMP DP  RH WIND       PRES   REMARKS
LA CROSSE      FAIR      12   0  58 W13       30.23R WCI  -3
SPARTA         FAIR      11  -1  58 W10       30.19S WCI  -3
VIROQUA        FAIR      10   2  71 W16       30.15S WCI  -7
BOSCOBEL       FAIR      18   0  45 W12G20    30.22S WCI   5
PRAIRIE DU CHI FAIR      16   4  59 W14       30.24R WCI   2
PLATTEVILLE    FAIR      17   4  54 W14       30.19S WCI   3

CITY           SKY/WX    TMP DP  RH WIND       PRES   REMARKS
REEDSBURG      FAIR      15  -4  43 W14G21    30.15S WCI   0
BARABOO/DELLS  FAIR      14  -3  47 W10G17    30.14S WCI   1
LONE ROCK      FAIR      17  -1  45 W13G22    30.19S WCI   4
MINERAL POINT  FAIR      18   3  53 W13G22    30.15S WCI   4
MADISON        FAIR      17  -3  41 W10G18    30.14S WCI   5
MIDDLETON      FAIR      19  -1  40 W9        30.16S WCI   8
WATERTOWN      FAIR      18   3  53 W10G16    30.14S WCI   6
MONROE         FAIR      18   0  46 W14G20    30.15S WCI   4
JANESVILLE     SUNNY     21   3  45 W14G21    30.16S WCI   8


CITY           SKY/WX    TMP DP  RH WIND       PRES   REMARKS
MILWAUKEE      FAIR      21   4  47 W13       30.13S WCI   9
WAUKESHA       SUNNY     18   3  53 W13G20    30.13S WCI   4
MILWAUKEE/TIMM SUNNY     19   3  49 W16       30.14S WCI   5
RACINE         FAIR      21   6  52 W8G18     30.15S WCI  11
KENOSHA        FAIR      22   9  57 W12       30.14S WCI  10
FOND DU LAC    FAIR      17   5  59 W12G20    30.12S WCI   4
SHEBOYGAN      PTSUNNY   17   7  64 NW13      30.11R WCI   4
WEST BEND      FAIR      18   3  53 W14G22    30.11R WCI   4
JUNEAU         FAIR      16   2  54 W15       30.14R WCI   1
LSZ147-162-102100-
LAKE SUPERIOR

STATION/POSITION TIME  TEMP    WIND        PRES    WAVE
                       AIR SEA DIR/SP/G            HT/PER
                 (UTC) (F)     (DEG/KT/KT) (MB)    (FT/S)
DEVILS ISLAND    1900    6     290/ 13/ 17 1020.0F
SAXON HARBOR     1940    6     220/  9/ 13 1019.3R

LMZ867-665-643>646-102100-
LAKE MICHIGAN

STATION/POSITION TIME  TEMP    WIND        PRES    WAVE
                       AIR SEA DIR/SP/G            HT/PER
                 (UTC) (F)     (DEG/KT/KT) (MB)    (FT/S)
CHAMBERS ISLAND  1940   18     210/  6/ 10   N/A
KEWAUNEE LAKESHO 1930   15     280/  9/ 12 1018.3R
SHEBOYGAN LAKESH 1900   15     290/ 11/ 13 1021.0R
PORT WASHINGTON  1940   19     280/  9/ 15 1021.3S
MILWAUKEE LAKESH 1930   20     250/  9/ 12   N/A
KENOSHA   LAKESH 1900   19     260/ 17/ 21 1021.0
TC  - TEMPERATURE IN CELSIUS
VSB - VISIBILITY IN STATUTE MILES
WCI - WIND CHILL INDEX
HX  - HEAT INDEX